{"data":{"norad_id":66192,"epoch":"2026-05-25T00:09:09.484128Z","epoch_age_seconds":84942,"freshness":"FRESH","line1":"1 66192U 25243R   26145.00635977  .00021407  00000+0  73272-3 0  9992","line2":"2 66192  53.1577 251.0960 0001243  91.1513 268.9630 15.30204412 32334","mean_motion":15.30204412,"eccentricity":0.0001243,"inclination_deg":53.1577,"raan_deg":251.096,"arg_perigee_deg":91.1513,"mean_anomaly_deg":268.963,"bstar":0.00073272,"rev_number":3233,"period_min":94.105074374861,"perigee_km":474.35002598947,"apogee_km":476.05376603902,"semimajor_km":6853.3388960142,"source":"CELESTRAK","updated_at":"2026-05-25T13:38:21.121507Z"}}